Year,Month,Day,Hour,Minute,Value (Times are PST for temperature in C)
2020,10,01,00,00,12.20
2020,10,01,00,01,12.20
2020,10,01,00,02,12.10
2020,10,01,00,03,12.10
2020,10,01,00,04,12.10
2020,10,01,00,05,12.10
2020,10,01,00,06,12.10
2020,10,01,00,07,12.10
2020,10,01,00,08,12.10
2020,10,01,00,09,12.00
2020,10,01,00,10,12.00
2020,10,01,00,11,12.00
2020,10,01,00,12,12.00
2020,10,01,00,13,11.90
2020,10,01,00,14,11.90
2020,10,01,00,15,11.90
2020,10,01,00,16,11.90
2020,10,01,00,17,11.90
2020,10,01,00,18,11.90
2020,10,01,00,19,11.90
2020,10,01,00,20,11.90
2020,10,01,00,21,11.90
2020,10,01,00,22,11.90
2020,10,01,00,23,11.90
2020,10,01,00,24,11.80
2020,10,01,00,25,11.80
2020,10,01,00,26,11.80
2020,10,01,00,27,11.80
2020,10,01,00,28,11.80
2020,10,01,00,29,11.80
2020,10,01,00,30,11.80
2020,10,01,00,31,11.80
2020,10,01,00,32,11.80
2020,10,01,00,33,11.80
2020,10,01,00,34,11.80
2020,10,01,00,35,11.70
2020,10,01,00,36,11.70
2020,10,01,00,37,11.80
2020,10,01,00,38,11.70
2020,10,01,00,39,11.70
2020,10,01,00,40,11.70
2020,10,01,00,41,11.70
2020,10,01,00,42,11.70
2020,10,01,00,43,11.70
2020,10,01,00,44,11.70
2020,10,01,00,45,11.70
2020,10,01,00,46,11.70
2020,10,01,00,47,11.70
2020,10,01,00,48,11.70
2020,10,01,00,49,11.70
2020,10,01,00,50,11.70
2020,10,01,00,51,11.70
2020,10,01,00,52,11.70
2020,10,01,00,53,11.70
2020,10,01,00,54,11.70
2020,10,01,00,55,11.70
2020,10,01,00,56,11.70
2020,10,01,00,57,11.70
2020,10,01,00,58,11.70
2020,10,01,00,59,11.70
2020,10,01,01,00,11.60
2020,10,01,01,01,11.70
2020,10,01,01,02,11.70
2020,10,01,01,03,11.70
2020,10,01,01,04,11.70
2020,10,01,01,05,11.70
2020,10,01,01,06,11.70
2020,10,01,01,07,11.70
2020,10,01,01,08,11.70
2020,10,01,01,09,11.70
2020,10,01,01,10,11.70
2020,10,01,01,11,11.60
2020,10,01,01,12,11.60
2020,10,01,01,13,11.60
2020,10,01,01,14,11.60
2020,10,01,01,15,11.60
2020,10,01,01,16,11.60
2020,10,01,01,17,11.60
2020,10,01,01,18,11.60
2020,10,01,01,19,11.60
2020,10,01,01,20,11.60
2020,10,01,01,21,11.60
2020,10,01,01,22,11.60
2020,10,01,01,23,11.60
2020,10,01,01,24,11.60
2020,10,01,01,25,11.70
2020,10,01,01,26,11.60
2020,10,01,01,27,11.70
2020,10,01,01,28,11.70
2020,10,01,01,29,11.70
2020,10,01,01,30,11.70
2020,10,01,01,31,11.70
2020,10,01,01,32,11.60
2020,10,01,01,33,11.60
2020,10,01,01,34,11.60
2020,10,01,01,35,11.60
2020,10,01,01,36,11.60
2020,10,01,01,37,11.60
2020,10,01,01,38,11.60
2020,10,01,01,39,11.60
2020,10,01,01,40,11.60
2020,10,01,01,41,11.60
2020,10,01,01,42,11.60
2020,10,01,01,43,11.60
2020,10,01,01,44,11.60
2020,10,01,01,45,11.60
2020,10,01,01,46,11.60
2020,10,01,01,47,11.60
2020,10,01,01,48,11.60
2020,10,01,01,49,11.60
2020,10,01,01,50,11.60
2020,10,01,01,51,11.60
2020,10,01,01,52,11.70
2020,10,01,01,53,11.70
2020,10,01,01,54,11.70
2020,10,01,01,55,11.70
2020,10,01,01,56,11.70
2020,10,01,01,57,11.70
2020,10,01,01,58,11.70
2020,10,01,01,59,11.70
2020,10,01,02,00,11.70
2020,10,01,02,01,11.70
2020,10,01,02,02,11.70
2020,10,01,02,03,11.60
2020,10,01,02,04,11.60
2020,10,01,02,05,11.60
2020,10,01,02,06,11.60
2020,10,01,02,07,11.60
2020,10,01,02,08,11.60
2020,10,01,02,09,11.60
2020,10,01,02,10,11.50
2020,10,01,02,11,11.60
2020,10,01,02,12,11.60
2020,10,01,02,13,11.60
2020,10,01,02,14,11.60
2020,10,01,02,15,11.60
2020,10,01,02,16,11.60
2020,10,01,02,17,11.60
2020,10,01,02,18,11.60
2020,10,01,02,19,11.60
2020,10,01,02,20,11.60
2020,10,01,02,21,11.70
2020,10,01,02,22,11.60
2020,10,01,02,23,11.70
2020,10,01,02,24,11.70
2020,10,01,02,25,11.70
2020,10,01,02,26,11.70
2020,10,01,02,27,11.70
2020,10,01,02,28,11.70
2020,10,01,02,29,11.70
2020,10,01,02,30,11.70
2020,10,01,02,31,11.70
2020,10,01,02,32,11.70
2020,10,01,02,33,11.70
2020,10,01,02,34,11.70
2020,10,01,02,35,11.70
2020,10,01,02,36,11.70
2020,10,01,02,37,11.70
2020,10,01,02,38,11.70
2020,10,01,02,39,11.70
2020,10,01,02,40,11.70
2020,10,01,02,41,11.70
2020,10,01,02,42,11.70
2020,10,01,02,43,11.70
2020,10,01,02,44,11.70
2020,10,01,02,45,11.70
2020,10,01,02,46,11.70
2020,10,01,02,47,11.70
2020,10,01,02,48,11.70
2020,10,01,02,49,11.70
2020,10,01,02,50,11.70
2020,10,01,02,51,11.70
2020,10,01,02,52,11.70
2020,10,01,02,53,11.70
2020,10,01,02,54,11.70
2020,10,01,02,55,11.70
2020,10,01,02,56,11.70
2020,10,01,02,57,11.70
2020,10,01,02,58,11.70
2020,10,01,02,59,11.70
2020,10,01,03,00,11.60
2020,10,01,03,01,11.60
2020,10,01,03,02,11.60
2020,10,01,03,03,11.60
2020,10,01,03,04,11.60
2020,10,01,03,05,11.50
2020,10,01,03,06,11.50
2020,10,01,03,07,11.50
2020,10,01,03,08,11.40
2020,10,01,03,09,11.40
2020,10,01,03,10,11.40
2020,10,01,03,11,11.40
2020,10,01,03,12,11.30
2020,10,01,03,13,11.30
2020,10,01,03,14,11.30
2020,10,01,03,15,11.30
2020,10,01,03,16,11.30
2020,10,01,03,17,11.30
2020,10,01,03,18,11.20
2020,10,01,03,19,11.20
2020,10,01,03,20,11.20
2020,10,01,03,21,11.10
2020,10,01,03,22,11.10
2020,10,01,03,23,11.10
2020,10,01,03,24,11.10
2020,10,01,03,25,11.00
2020,10,01,03,26,11.00
2020,10,01,03,27,11.00
2020,10,01,03,28,10.90
2020,10,01,03,29,10.90
2020,10,01,03,30,10.90
2020,10,01,03,31,10.90
2020,10,01,03,32,10.80
2020,10,01,03,33,10.80
2020,10,01,03,34,10.80
2020,10,01,03,35,10.80
2020,10,01,03,36,10.70
2020,10,01,03,37,10.70
2020,10,01,03,38,10.70
2020,10,01,03,39,10.70
2020,10,01,03,40,10.60
2020,10,01,03,41,10.60
2020,10,01,03,42,10.60
2020,10,01,03,43,10.60
2020,10,01,03,44,10.50
2020,10,01,03,45,10.50
2020,10,01,03,46,10.50
2020,10,01,03,47,10.50
2020,10,01,03,48,10.40
2020,10,01,03,49,10.40
2020,10,01,03,50,10.40
2020,10,01,03,51,10.40
2020,10,01,03,52,10.40
2020,10,01,03,53,10.30
2020,10,01,03,54,10.30
2020,10,01,03,55,10.30
2020,10,01,03,56,10.30
2020,10,01,03,57,10.30
2020,10,01,03,58,10.30
2020,10,01,03,59,10.30
2020,10,01,04,00,10.30
2020,10,01,04,01,10.20
2020,10,01,04,02,10.20
2020,10,01,04,03,10.20
2020,10,01,04,04,10.20
2020,10,01,04,05,10.20
2020,10,01,04,06,10.20
2020,10,01,04,07,10.20
2020,10,01,04,08,10.20
2020,10,01,04,09,10.20
2020,10,01,04,10,10.20
2020,10,01,04,11,10.10
2020,10,01,04,12,10.10
2020,10,01,04,13,10.10
2020,10,01,04,14,10.10
2020,10,01,04,15,10.10
2020,10,01,04,16,10.10
2020,10,01,04,17,10.10
2020,10,01,04,18,10.10
2020,10,01,04,19,10.10
2020,10,01,04,20,10.10
2020,10,01,04,21,10.10
2020,10,01,04,22,10.10
2020,10,01,04,23,10.10
2020,10,01,04,24,10.10
2020,10,01,04,25,10.10
2020,10,01,04,26,10.10
2020,10,01,04,27,10.10
2020,10,01,04,28,10.10
2020,10,01,04,29,10.10
2020,10,01,04,30,10.10
2020,10,01,04,31,10.10
2020,10,01,04,32,10.10
2020,10,01,04,33,10.10
2020,10,01,04,34,10.10
2020,10,01,04,35,10.10
2020,10,01,04,36,10.10
2020,10,01,04,37,10.10
2020,10,01,04,38,10.10
2020,10,01,04,39,10.10
2020,10,01,04,40,10.00
2020,10,01,04,41,10.00
2020,10,01,04,42,10.00
2020,10,01,04,43,10.00
2020,10,01,04,44,10.00
2020,10,01,04,45,10.00
2020,10,01,04,46,10.00
2020,10,01,04,47,10.00
2020,10,01,04,48,10.00
2020,10,01,04,49,10.00
2020,10,01,04,50,10.00
2020,10,01,04,51,10.00
2020,10,01,04,52,10.00
2020,10,01,04,53,10.00
2020,10,01,04,54,10.00
2020,10,01,04,55,10.00
2020,10,01,04,56,10.00
2020,10,01,04,57,9.90
2020,10,01,04,58,9.90
2020,10,01,04,59,9.90
2020,10,01,05,00,9.90
2020,10,01,05,01,9.90
2020,10,01,05,02,9.90
2020,10,01,05,03,9.90
2020,10,01,05,04,9.90
2020,10,01,05,05,9.90
2020,10,01,05,06,9.80
2020,10,01,05,07,9.80
2020,10,01,05,08,9.80
2020,10,01,05,09,9.80
2020,10,01,05,10,9.80
2020,10,01,05,11,9.80
2020,10,01,05,12,9.70
2020,10,01,05,13,9.70
2020,10,01,05,14,9.70
2020,10,01,05,15,9.70
2020,10,01,05,16,9.70
2020,10,01,05,17,9.70
2020,10,01,05,18,9.70
2020,10,01,05,19,9.60
2020,10,01,05,20,9.60
2020,10,01,05,21,9.60
2020,10,01,05,22,9.60
2020,10,01,05,23,9.60
2020,10,01,05,24,9.60
2020,10,01,05,25,9.60
2020,10,01,05,26,9.60
2020,10,01,05,27,9.60
2020,10,01,05,28,9.60
2020,10,01,05,29,9.60
2020,10,01,05,30,9.60
2020,10,01,05,31,9.50
2020,10,01,05,32,9.50
2020,10,01,05,33,9.50
2020,10,01,05,34,9.50
2020,10,01,05,35,9.50
2020,10,01,05,36,9.50
2020,10,01,05,37,9.50
2020,10,01,05,38,9.40
2020,10,01,05,39,9.50
2020,10,01,05,40,9.40
2020,10,01,05,41,9.40
2020,10,01,05,42,9.40
2020,10,01,05,43,9.40
2020,10,01,05,44,9.40
2020,10,01,05,45,9.40
2020,10,01,05,46,9.40
2020,10,01,05,47,9.40
2020,10,01,05,48,9.40
2020,10,01,05,49,9.40
2020,10,01,05,50,9.40
2020,10,01,05,51,9.40
2020,10,01,05,52,9.40
2020,10,01,05,53,9.40
2020,10,01,05,54,9.40
2020,10,01,05,55,9.40
2020,10,01,05,56,9.40
2020,10,01,05,57,9.40
2020,10,01,05,58,9.40
2020,10,01,05,59,9.40
2020,10,01,06,00,9.40
2020,10,01,06,01,9.40
2020,10,01,06,02,9.40
2020,10,01,06,03,9.40
2020,10,01,06,04,9.40
2020,10,01,06,05,9.40
2020,10,01,06,06,9.40
2020,10,01,06,07,9.40
2020,10,01,06,08,9.40
2020,10,01,06,09,9.40
2020,10,01,06,10,9.40
2020,10,01,06,11,9.40
2020,10,01,06,12,9.40
2020,10,01,06,13,9.40
2020,10,01,06,14,9.40
2020,10,01,06,15,9.40
2020,10,01,06,16,9.40
2020,10,01,06,17,9.40
2020,10,01,06,18,9.40
2020,10,01,06,19,9.40
2020,10,01,06,20,9.40
2020,10,01,06,21,9.40
2020,10,01,06,22,9.40
2020,10,01,06,23,9.40
2020,10,01,06,24,9.40
2020,10,01,06,25,9.40
2020,10,01,06,26,9.40
2020,10,01,06,27,9.40
2020,10,01,06,28,9.40
2020,10,01,06,29,9.40
2020,10,01,06,30,9.40
2020,10,01,06,31,9.40
2020,10,01,06,32,9.40
2020,10,01,06,33,9.40
2020,10,01,06,34,9.40
2020,10,01,06,35,9.40
2020,10,01,06,36,9.40
2020,10,01,06,37,9.40
2020,10,01,06,38,9.50
2020,10,01,06,39,9.50
2020,10,01,06,40,9.50
2020,10,01,06,41,9.50
2020,10,01,06,42,9.50
2020,10,01,06,43,9.40
2020,10,01,06,44,9.50
2020,10,01,06,45,9.50
2020,10,01,06,46,9.50
2020,10,01,06,47,9.50
2020,10,01,06,48,9.40
2020,10,01,06,49,9.50
2020,10,01,06,50,9.40
2020,10,01,06,51,9.40
2020,10,01,06,52,9.40
2020,10,01,06,53,9.40
2020,10,01,06,54,9.40
2020,10,01,06,55,9.50
2020,10,01,06,56,9.50
2020,10,01,06,57,9.50
2020,10,01,06,58,9.50
2020,10,01,06,59,9.50
2020,10,01,07,00,9.50
2020,10,01,07,01,9.50
2020,10,01,07,02,9.50
2020,10,01,07,03,9.50
2020,10,01,07,04,9.50
2020,10,01,07,05,9.50
2020,10,01,07,06,9.50
2020,10,01,07,07,9.50
2020,10,01,07,08,9.60
2020,10,01,07,09,9.60
2020,10,01,07,10,9.60
2020,10,01,07,11,9.60
2020,10,01,07,12,9.60
2020,10,01,07,13,9.60
2020,10,01,07,14,9.60
2020,10,01,07,15,9.60
2020,10,01,07,16,9.60
2020,10,01,07,17,9.60
2020,10,01,07,18,9.60
2020,10,01,07,19,9.60
2020,10,01,07,20,9.60
2020,10,01,07,21,9.70
2020,10,01,07,22,9.70
2020,10,01,07,23,9.70
2020,10,01,07,24,9.70
2020,10,01,07,25,9.70
2020,10,01,07,26,9.70
2020,10,01,07,27,9.70
2020,10,01,07,28,9.70
2020,10,01,07,29,9.70
2020,10,01,07,30,9.70
2020,10,01,07,31,9.70
2020,10,01,07,32,9.70
2020,10,01,07,33,9.80
2020,10,01,07,34,9.80
2020,10,01,07,35,9.80
2020,10,01,07,36,9.80
2020,10,01,07,37,9.80
2020,10,01,07,38,9.80
2020,10,01,07,39,9.80
2020,10,01,07,40,9.80
2020,10,01,07,41,9.90
2020,10,01,07,42,9.90
2020,10,01,07,43,9.90
2020,10,01,07,44,9.90
2020,10,01,07,45,9.90
2020,10,01,07,46,9.90
2020,10,01,07,47,9.90
2020,10,01,07,48,10.00
2020,10,01,07,49,10.00
2020,10,01,07,50,10.00
2020,10,01,07,51,10.10
2020,10,01,07,52,10.10
2020,10,01,07,53,10.10
2020,10,01,07,54,10.10
2020,10,01,07,55,10.10
2020,10,01,07,56,10.10
2020,10,01,07,57,10.10
2020,10,01,07,58,10.10
2020,10,01,07,59,10.10
2020,10,01,08,00,10.10
2020,10,01,08,01,10.20
2020,10,01,08,02,10.20
2020,10,01,08,03,10.20
2020,10,01,08,04,10.20
2020,10,01,08,05,10.20
2020,10,01,08,06,10.20
2020,10,01,08,07,10.20
2020,10,01,08,08,10.20
2020,10,01,08,09,10.20
2020,10,01,08,10,10.20
2020,10,01,08,11,10.20
2020,10,01,08,12,10.20
2020,10,01,08,13,10.20
2020,10,01,08,14,10.20
2020,10,01,08,15,10.20
2020,10,01,08,16,10.20
2020,10,01,08,17,10.30
2020,10,01,08,18,10.30
2020,10,01,08,19,10.30
2020,10,01,08,20,10.30
2020,10,01,08,21,10.30
2020,10,01,08,22,10.30
2020,10,01,08,23,10.30
2020,10,01,08,24,10.30
2020,10,01,08,25,10.30
2020,10,01,08,26,10.30
2020,10,01,08,27,10.30
2020,10,01,08,28,10.30
2020,10,01,08,29,10.30
2020,10,01,08,30,10.30
2020,10,01,08,31,10.40
2020,10,01,08,32,10.40
2020,10,01,08,33,10.40
2020,10,01,08,34,10.40
2020,10,01,08,35,10.40
2020,10,01,08,36,10.50
2020,10,01,08,37,10.50
2020,10,01,08,38,10.50
2020,10,01,08,39,10.60
2020,10,01,08,40,10.60
2020,10,01,08,41,10.70
2020,10,01,08,42,10.70
2020,10,01,08,43,10.70
2020,10,01,08,44,10.80
2020,10,01,08,45,10.80
2020,10,01,08,46,10.80
2020,10,01,08,47,10.90
2020,10,01,08,48,10.90
2020,10,01,08,49,11.00
2020,10,01,08,50,11.00
2020,10,01,08,51,11.10
2020,10,01,08,52,11.10
2020,10,01,08,53,11.20
2020,10,01,08,54,11.30
2020,10,01,08,55,11.30
2020,10,01,08,56,11.40
2020,10,01,08,57,11.40
2020,10,01,08,58,11.50
2020,10,01,08,59,11.50
2020,10,01,09,00,11.60
2020,10,01,09,01,11.60
2020,10,01,09,02,11.70
2020,10,01,09,03,11.70
2020,10,01,09,04,11.70
2020,10,01,09,05,11.80
2020,10,01,09,06,11.80
2020,10,01,09,07,11.90
2020,10,01,09,08,11.90
2020,10,01,09,09,11.90
2020,10,01,09,10,12.00
2020,10,01,09,11,12.10
2020,10,01,09,12,12.10
2020,10,01,09,13,12.20
2020,10,01,09,14,12.20
2020,10,01,09,15,12.20
2020,10,01,09,16,12.30
2020,10,01,09,17,12.30
2020,10,01,09,18,12.40
2020,10,01,09,19,12.50
2020,10,01,09,20,12.50
2020,10,01,09,21,12.60
2020,10,01,09,22,12.70
2020,10,01,09,23,12.70
2020,10,01,09,24,12.80
2020,10,01,09,25,12.80
2020,10,01,09,26,12.90
2020,10,01,09,27,12.90
2020,10,01,09,28,13.00
2020,10,01,09,29,13.10
2020,10,01,09,30,13.10
2020,10,01,09,31,13.20
2020,10,01,09,32,13.20
2020,10,01,09,33,13.30
2020,10,01,09,34,13.30
2020,10,01,09,35,13.40
2020,10,01,09,36,13.40
2020,10,01,09,37,13.50
2020,10,01,09,38,13.60
2020,10,01,09,39,13.60
2020,10,01,09,40,13.70
2020,10,01,09,41,13.70
2020,10,01,09,42,13.80
2020,10,01,09,43,13.90
2020,10,01,09,44,13.90
2020,10,01,09,45,14.00
2020,10,01,09,46,14.00
2020,10,01,09,47,14.00
2020,10,01,09,48,14.10
2020,10,01,09,49,14.10
2020,10,01,09,50,14.10
2020,10,01,09,51,14.10
2020,10,01,09,52,14.20
2020,10,01,09,53,14.20
2020,10,01,09,54,14.20
2020,10,01,09,55,14.20
2020,10,01,09,56,14.20
2020,10,01,09,57,14.30
2020,10,01,09,58,14.30
2020,10,01,09,59,14.30
2020,10,01,10,00,14.30
2020,10,01,10,01,14.30
2020,10,01,10,02,14.30
2020,10,01,10,03,14.20
2020,10,01,10,04,14.20
2020,10,01,10,05,14.30
2020,10,01,10,06,14.30
2020,10,01,10,07,14.30
2020,10,01,10,08,14.30
2020,10,01,10,09,14.30
2020,10,01,10,10,14.30
2020,10,01,10,11,14.30
2020,10,01,10,12,14.40
2020,10,01,10,13,14.40
2020,10,01,10,14,14.50
2020,10,01,10,15,14.50
2020,10,01,10,16,14.60
2020,10,01,10,17,14.60
2020,10,01,10,18,14.70
2020,10,01,10,19,14.70
2020,10,01,10,20,14.80
2020,10,01,10,21,14.80
2020,10,01,10,22,14.80
2020,10,01,10,23,14.80
2020,10,01,10,24,14.90
2020,10,01,10,25,14.90
2020,10,01,10,26,14.90
2020,10,01,10,27,15.00
2020,10,01,10,28,15.00
2020,10,01,10,29,15.10
2020,10,01,10,30,15.10
2020,10,01,10,31,15.20
2020,10,01,10,32,15.20
2020,10,01,10,33,15.30
2020,10,01,10,34,15.30
2020,10,01,10,35,15.30
2020,10,01,10,36,15.40
2020,10,01,10,37,15.50
2020,10,01,10,38,15.50
2020,10,01,10,39,15.60
2020,10,01,10,40,15.60
2020,10,01,10,41,15.70
2020,10,01,10,42,15.80
2020,10,01,10,43,15.90
2020,10,01,10,44,15.90
2020,10,01,10,45,16.00
2020,10,01,10,46,16.10
2020,10,01,10,47,16.20
2020,10,01,10,48,16.20
2020,10,01,10,49,16.30
2020,10,01,10,50,16.40
2020,10,01,10,51,16.40
2020,10,01,10,52,16.50
2020,10,01,10,53,16.60
2020,10,01,10,54,16.70
2020,10,01,10,55,16.70
2020,10,01,10,56,16.80
2020,10,01,10,57,16.90
2020,10,01,10,58,16.90
2020,10,01,10,59,17.00
2020,10,01,11,00,17.10
2020,10,01,11,01,17.10
2020,10,01,11,02,17.20
2020,10,01,11,03,17.30
2020,10,01,11,04,17.30
2020,10,01,11,05,17.40
2020,10,01,11,06,17.40
2020,10,01,11,07,17.40
2020,10,01,11,08,17.50
2020,10,01,11,09,17.60
2020,10,01,11,10,17.60
2020,10,01,11,11,17.70
2020,10,01,11,12,17.70
2020,10,01,11,13,17.70
2020,10,01,11,14,17.80
2020,10,01,11,15,17.80
2020,10,01,11,16,17.80
2020,10,01,11,17,17.80
2020,10,01,11,18,17.80
2020,10,01,11,19,17.80
2020,10,01,11,20,17.80
2020,10,01,11,21,17.80
2020,10,01,11,22,17.90
2020,10,01,11,23,17.90
2020,10,01,11,24,17.90
2020,10,01,11,25,17.90
2020,10,01,11,26,18.00
2020,10,01,11,27,18.00
2020,10,01,11,28,18.10
2020,10,01,11,29,18.10
2020,10,01,11,30,18.10
2020,10,01,11,31,18.10
2020,10,01,11,32,18.10
2020,10,01,11,33,18.10
2020,10,01,11,34,18.10
2020,10,01,11,35,18.10
2020,10,01,11,36,18.10
2020,10,01,11,37,18.10
2020,10,01,11,38,18.00
2020,10,01,11,39,18.00
2020,10,01,11,40,18.00
2020,10,01,11,41,18.00
2020,10,01,11,42,18.10
2020,10,01,11,43,18.10
2020,10,01,11,44,18.10
2020,10,01,11,45,18.10
2020,10,01,11,46,18.10
2020,10,01,11,47,18.10
2020,10,01,11,48,18.10
2020,10,01,11,49,18.10
2020,10,01,11,50,18.10
2020,10,01,11,51,18.10
2020,10,01,11,52,18.00
2020,10,01,11,53,18.10
2020,10,01,11,54,18.10
2020,10,01,11,55,18.20
2020,10,01,11,56,18.20
2020,10,01,11,57,18.20
2020,10,01,11,58,18.30
2020,10,01,11,59,18.30
2020,10,01,12,00,18.40
2020,10,01,12,01,18.40
2020,10,01,12,02,18.40
2020,10,01,12,03,18.40
2020,10,01,12,04,18.40
2020,10,01,12,05,18.50
2020,10,01,12,06,18.50
2020,10,01,12,07,18.50
2020,10,01,12,08,18.50
2020,10,01,12,09,18.50
2020,10,01,12,10,18.50
2020,10,01,12,11,18.50
2020,10,01,12,12,18.50
2020,10,01,12,13,18.50
2020,10,01,12,14,18.40
2020,10,01,12,15,18.50
2020,10,01,12,16,18.40
2020,10,01,12,17,18.50
2020,10,01,12,18,18.50
2020,10,01,12,19,18.60
2020,10,01,12,20,18.60
2020,10,01,12,21,18.60
2020,10,01,12,22,18.70
2020,10,01,12,23,18.70
2020,10,01,12,24,18.70
2020,10,01,12,25,18.80
2020,10,01,12,26,18.80
2020,10,01,12,27,18.80
2020,10,01,12,28,18.90
2020,10,01,12,29,18.90
2020,10,01,12,30,18.90
2020,10,01,12,31,19.00
2020,10,01,12,32,19.00
2020,10,01,12,33,19.00
2020,10,01,12,34,19.00
2020,10,01,12,35,19.00
2020,10,01,12,36,19.00
2020,10,01,12,37,19.00
2020,10,01,12,38,19.10
2020,10,01,12,39,19.00
2020,10,01,12,40,19.10
2020,10,01,12,41,19.10
2020,10,01,12,42,19.10
2020,10,01,12,43,19.10
2020,10,01,12,44,19.10
2020,10,01,12,45,19.10
2020,10,01,12,46,19.10
2020,10,01,12,47,19.10
2020,10,01,12,48,19.10
2020,10,01,12,49,19.10
2020,10,01,12,50,19.10
2020,10,01,12,51,19.00
2020,10,01,12,52,19.00
2020,10,01,12,53,19.00
2020,10,01,12,54,18.90
2020,10,01,12,55,18.90
2020,10,01,12,56,18.90
2020,10,01,12,57,18.90
2020,10,01,12,58,18.90
2020,10,01,12,59,18.90
2020,10,01,13,00,18.90
2020,10,01,13,01,18.90
2020,10,01,13,02,18.90
2020,10,01,13,03,18.90
2020,10,01,13,04,18.90
2020,10,01,13,05,18.90
2020,10,01,13,06,19.00
2020,10,01,13,07,19.00
2020,10,01,13,08,19.10
2020,10,01,13,09,19.10
2020,10,01,13,10,19.20
2020,10,01,13,11,19.30
2020,10,01,13,12,19.30
2020,10,01,13,13,19.40
2020,10,01,13,14,19.50
2020,10,01,13,15,19.60
2020,10,01,13,16,19.70
2020,10,01,13,17,19.70
2020,10,01,13,18,19.80
2020,10,01,13,19,19.90
2020,10,01,13,20,19.90
2020,10,01,13,21,20.00
2020,10,01,13,22,20.10
2020,10,01,13,23,20.10
2020,10,01,13,24,20.20
2020,10,01,13,25,20.20
2020,10,01,13,26,20.30
2020,10,01,13,27,20.30
2020,10,01,13,28,20.30
2020,10,01,13,29,20.30
2020,10,01,13,30,20.30
2020,10,01,13,31,20.30
2020,10,01,13,32,20.30
2020,10,01,13,33,20.30
2020,10,01,13,34,20.40
2020,10,01,13,35,20.40
2020,10,01,13,36,20.40
2020,10,01,13,37,20.40
2020,10,01,13,38,20.40
2020,10,01,13,39,20.50
2020,10,01,13,40,20.50
2020,10,01,13,41,20.60
2020,10,01,13,42,20.60
2020,10,01,13,43,20.70
2020,10,01,13,44,20.70
2020,10,01,13,45,20.70
2020,10,01,13,46,20.80
2020,10,01,13,47,20.80
2020,10,01,13,48,20.90
2020,10,01,13,49,20.90
2020,10,01,13,50,20.90
2020,10,01,13,51,20.90
2020,10,01,13,52,20.90
2020,10,01,13,53,21.00
2020,10,01,13,54,21.00
2020,10,01,13,55,21.00
2020,10,01,13,56,21.00
2020,10,01,13,57,21.10
2020,10,01,13,58,21.10
2020,10,01,13,59,21.10
2020,10,01,14,00,21.20
2020,10,01,14,01,21.20
2020,10,01,14,02,21.20
2020,10,01,14,03,21.30
2020,10,01,14,04,21.30
2020,10,01,14,05,21.30
2020,10,01,14,06,21.30
2020,10,01,14,07,21.30
2020,10,01,14,08,21.40
2020,10,01,14,09,21.40
2020,10,01,14,10,21.50
2020,10,01,14,11,21.50
2020,10,01,14,12,21.60
2020,10,01,14,13,21.60
2020,10,01,14,14,21.70
2020,10,01,14,15,21.70
2020,10,01,14,16,21.70
2020,10,01,14,17,21.70
2020,10,01,14,18,21.80
2020,10,01,14,19,21.80
2020,10,01,14,20,21.80
2020,10,01,14,21,21.80
2020,10,01,14,22,21.80
2020,10,01,14,23,21.80
2020,10,01,14,24,21.80
2020,10,01,14,25,21.80
2020,10,01,14,26,21.80
2020,10,01,14,27,21.70
2020,10,01,14,28,21.70
2020,10,01,14,29,21.70
2020,10,01,14,30,21.60
2020,10,01,14,31,21.60
2020,10,01,14,32,21.60
2020,10,01,14,33,21.60
2020,10,01,14,34,21.60
2020,10,01,14,35,21.60
2020,10,01,14,36,21.70
2020,10,01,14,37,21.70
2020,10,01,14,38,21.70
2020,10,01,14,39,21.70
2020,10,01,14,40,21.70
2020,10,01,14,41,21.70
2020,10,01,14,42,21.70
2020,10,01,14,43,21.70
2020,10,01,14,44,21.70
2020,10,01,14,45,21.70
2020,10,01,14,46,21.70
2020,10,01,14,47,21.70
2020,10,01,14,48,21.80
2020,10,01,14,49,21.80
2020,10,01,14,50,21.80
2020,10,01,14,51,21.80
2020,10,01,14,52,21.80
2020,10,01,14,53,21.80
2020,10,01,14,54,21.80
2020,10,01,14,55,21.80
2020,10,01,14,56,21.80
2020,10,01,14,57,21.80
2020,10,01,14,58,21.80
2020,10,01,14,59,21.70
2020,10,01,15,00,21.70
2020,10,01,15,01,21.70
2020,10,01,15,02,21.70
2020,10,01,15,03,21.70
2020,10,01,15,04,21.80
2020,10,01,15,05,21.80
2020,10,01,15,06,21.80
2020,10,01,15,07,21.80
2020,10,01,15,08,21.90
2020,10,01,15,09,21.90
2020,10,01,15,10,21.90
2020,10,01,15,11,21.90
2020,10,01,15,12,21.90
2020,10,01,15,13,21.90
2020,10,01,15,14,21.90
2020,10,01,15,15,21.90
2020,10,01,15,16,21.90
2020,10,01,15,17,22.00
2020,10,01,15,18,22.00
2020,10,01,15,19,22.00
2020,10,01,15,20,22.10
2020,10,01,15,21,22.10
2020,10,01,15,22,22.10
2020,10,01,15,23,22.20
2020,10,01,15,24,22.20
2020,10,01,15,25,22.20
2020,10,01,15,26,22.20
2020,10,01,15,27,22.20
2020,10,01,15,28,22.20
2020,10,01,15,29,22.20
2020,10,01,15,30,22.30
2020,10,01,15,31,22.30
2020,10,01,15,32,22.30
2020,10,01,15,33,22.30
2020,10,01,15,34,22.30
2020,10,01,15,35,22.30
2020,10,01,15,36,22.30
2020,10,01,15,37,22.40
2020,10,01,15,38,22.40
2020,10,01,15,39,22.40
2020,10,01,15,40,22.40
2020,10,01,15,41,22.40
2020,10,01,15,42,22.30
2020,10,01,15,43,22.30
2020,10,01,15,44,22.20
2020,10,01,15,45,22.20
2020,10,01,15,46,22.20
2020,10,01,15,47,22.20
2020,10,01,15,48,22.10
2020,10,01,15,49,22.10
2020,10,01,15,50,22.10
2020,10,01,15,51,22.00
2020,10,01,15,52,22.00
2020,10,01,15,53,21.90
2020,10,01,15,54,21.90
2020,10,01,15,55,21.90
2020,10,01,15,56,21.80
2020,10,01,15,57,21.80
2020,10,01,15,58,21.80
2020,10,01,15,59,21.80
2020,10,01,16,00,21.70
2020,10,01,16,01,21.70
2020,10,01,16,02,21.60
2020,10,01,16,03,21.60
2020,10,01,16,04,21.50
2020,10,01,16,05,21.50
2020,10,01,16,06,21.40
2020,10,01,16,07,21.40
2020,10,01,16,08,21.30
2020,10,01,16,09,21.30
2020,10,01,16,10,21.20
2020,10,01,16,11,21.20
2020,10,01,16,12,21.10
2020,10,01,16,13,21.10
2020,10,01,16,14,21.10
2020,10,01,16,15,21.00
2020,10,01,16,16,21.00
2020,10,01,16,17,21.00
2020,10,01,16,18,20.90
2020,10,01,16,19,20.90
2020,10,01,16,20,20.90
2020,10,01,16,21,20.90
2020,10,01,16,22,20.90
2020,10,01,16,23,20.90
2020,10,01,16,24,20.80
2020,10,01,16,25,20.80
2020,10,01,16,26,20.80
2020,10,01,16,27,20.80
2020,10,01,16,28,20.80
2020,10,01,16,29,20.80
2020,10,01,16,30,20.80
2020,10,01,16,31,20.70
2020,10,01,16,32,20.70
2020,10,01,16,33,20.70
2020,10,01,16,34,20.70
2020,10,01,16,35,20.60
2020,10,01,16,36,20.60
2020,10,01,16,37,20.60
2020,10,01,16,38,20.60
2020,10,01,16,39,20.60
2020,10,01,16,40,20.60
2020,10,01,16,41,20.50
2020,10,01,16,42,20.50
2020,10,01,16,43,20.50
2020,10,01,16,44,20.50
2020,10,01,16,45,20.40
2020,10,01,16,46,20.40
2020,10,01,16,47,20.40
2020,10,01,16,48,20.30
2020,10,01,16,49,20.30
2020,10,01,16,50,20.30
2020,10,01,16,51,20.30
2020,10,01,16,52,20.30
2020,10,01,16,53,20.20
2020,10,01,16,54,20.20
2020,10,01,16,55,20.20
2020,10,01,16,56,20.20
2020,10,01,16,57,20.10
2020,10,01,16,58,20.10
2020,10,01,16,59,20.10
2020,10,01,17,00,20.10
2020,10,01,17,01,20.10
2020,10,01,17,02,20.00
2020,10,01,17,03,20.00
2020,10,01,17,04,20.00
2020,10,01,17,05,20.00
2020,10,01,17,06,20.00
2020,10,01,17,07,19.90
2020,10,01,17,08,19.90
2020,10,01,17,09,19.90
2020,10,01,17,10,19.90
2020,10,01,17,11,19.80
2020,10,01,17,12,19.80
2020,10,01,17,13,19.70
2020,10,01,17,14,19.70
2020,10,01,17,15,19.70
2020,10,01,17,16,19.70
2020,10,01,17,17,19.60
2020,10,01,17,18,19.60
2020,10,01,17,19,19.50
2020,10,01,17,20,19.50
2020,10,01,17,21,19.40
2020,10,01,17,22,19.40
2020,10,01,17,23,19.30
2020,10,01,17,24,19.30
2020,10,01,17,25,19.20
2020,10,01,17,26,19.20